Погода в Инге

Погода в Инге : погода сейчас, прогноз погоды и архив. Всё, что Вы хотите узнать о погоде в Инге!

Поиск расширенной информации на нашем сайте:

Другие новости

Новости СМИ2

Главная страница сайта

Новости сайта

02.10.2013

Напоминаем, что на нашем новом сайте вы можете получить высокодетализированные прогнозы погоды по пунктам России, СНГ и мира (включающие важные для авиации метеовеличины, такие как направление и скорость ветра, видимость, явления погоды, количество и форма облачности, нижняя и верхняя граница облачности), а также ознакомиться с разнообразными материалами по авиационной метеорологии и подборкой полезных ссылок на эту тему.

Сайт Метеоцентр.Азия посвящён разработке технологий оптимизации авиаметеорологического обслуживания, включая проектирование и перспективное создание нескольких автоматизированных авиаметеорологических систем:
- система выпуска высокодетальных прогностических карт явлений погоды для нижнего воздушного пространства по России и ближнему зарубежью;
- система верификации прогнозов TAF (выпускаемых синоптиками официальных АМСГ РФ и ближнего зарубежья) и AUTOTAF (выпускаемых сайтом Метеоцентр.Азия) - выявление ошибок, онлайн-сопоставление с фактической погодой METAR, автоматическое внесение коррективов в прогнозы при резком отклонении фактической погоды от прогноза, подсчёт оправдываемости прогнозов по элементам и в целом;
- система обработки, анализа и отображения авиаметеорологической информации для применения провайдерами метеорологической информации.

Рекомендуем: инмор спб сайт

Погода в Инге - сегодня

Время (UTC), дата Ветер
(°,м/с) 
Видим.   Явления Облачность Т
(°С)
Тd
(°С)
f(%) Тe
(°С)
Pmin
(гПа)
dP
(гПа)
Po
(мм)
O2
(г/м3)
Тmin Tmax R s Состояние
почвы
06 21.06.17 070 (В) 20000 м    3/1 1000 м верхняя 
[Cu hum|Ci fib]
+29.8 +13.2 36 +37  1002.3  -1.4  708  254           
09 21.06.17 090 (В) 20000 м    3/1 1000 м верхняя 
[Cu hum|Ci fib]
+31.6 +9.1 25 +33  1000.7  -1.2  707  254           
12 21.06.17 050 (СВ) 20000 м    1/0 верхняя 
[Ci fib]
+29.4 +9.2 28 +31  1001.1  707  255    +32       
15 21.06.17 тихо ()   н/о    3/0 верхняя 
[Ci fib]
+17.8 +12.2 70 +23  1003.9  0.3  707  265           
18 21.06.17 тихо ()   н/о    3/0 верхняя 
[Ci fib]
+10.4 +9 91 +11  1005.4  -0.1  707  273           
21 21.06.17 тихо ()   20000 м    3/0 верхняя 
[Ci fib]
+7.8 +6.9 94 +8  1006.3  0.2  707  276           
00 22.06.17 тихо ()   20000 м    1/0 верхняя 
[Ci fib]
+14.8 +12.4 86 +21  1005.7  708  268  +7.5         
03 22.06.17 320 (СЗ) 20000 м    ясно 
+26.5 +14.7 48 +36  1004.5  1.3  709  257           
06 22.06.17 320 (СЗ) 4000 м  дым  ясно 
+29.7 +14.4 39 +39  1004  0.3  709  255           
09 22.06.17 360 (С) 4000 м  дым  ясно 
+30.7 +14.5 37 +40  1003.1  -0.7  708  254           
12 22.06.17 340 (С) 4000 м  дым  1/0 верхняя 
[Ci sp]
+30 +15.5 41 +41  1003.5  0.3  709  254    +30.7       
15 22.06.17 тихо ()   н/о    3/0 верхняя 
[Ci sp]
+18.1 +16.4 90 +31  1007.3  1.2  709  264           
18 22.06.17 тихо ()   н/о    3/0 верхняя 
[Ci sp]
+15.6 +14.4 93 +25  1007.9  709  267           
21 22.06.17 230 (ЮЗ) 20000 м    6/0 верхняя 
[Ci]
+13.9 +12.8 93 +20  1008.3  -0.1  709  269           
00 23.06.17 230 (ЮЗ) 4000 м  дым  6/0 верхняя 
[Ci fib]
+19.6 +15.7 78 +32  1006.7  -0.1  710  263  +13.5         
03 23.06.17 020 (С) 10 км  дым  4/0 верхняя 
[Ci fib]
+27.4 +20.4 66 +49  1003.8  -1.1  708  254           
06 23.06.17 090 (В) 10 км  дым  6/1 600 м кучево-дожд., верхняя 
[Cb calv|Ci fib]
+31.7 +16.3 40 +44  1001.7  -1.3  708  252           
09 23.06.17 070 (В) 20000 м    9/3 600 м кучево-дожд., верхняя 
[Cb cap|Ci sp]
+32.1 +9.7 25 +34  1001.1  -0.7  707  253           
12 23.06.17 тихо ()   20000 м    10/0 средняя, верхняя 
[Ac As|Ci sp]
+29.5 +16.8 46 +43  1001.4  707  253    +33.8       
15 23.06.17 тихо ()   н/о    10/0 средняя, верхняя 
[Ac As|Ci sp]
+17.9 +15.7 87 +29  1004.7  0.8  708  264           
18 23.06.17 тихо ()   н/о    10/0 верхняя 
[Ci fib]
+13.7 +12.4 92 +20  1004.9  -0.8  707  269           
21 23.06.17 тихо ()   20000 м    10/0 средняя, верхняя 
[Ac As|Ci fib]
+11 +10.2 95 +14  1004.7  -0.8  706  272           
00 24.06.17 тихо ()   10 км  дым  10/0 средняя, верхняя 
[Ac lent|Cc]
+15.8 +13.9 88 +24  1002.9  -0.6  706  266  +10.5         
03 24.06.17 тихо ()   10 км  дым  4/0 средняя 
[Ac trans]
+26.2 +14.8 49 +36  1000.3  -0.3  706  256           
06 24.06.17 340 (С) 10 км  дым  6/3 600 м кучево-дожд., средняя 
[Cb cap|Ac trans]
+30.1 +15 40 +40  999.6  -0.8  705  253           
Время (UTC), дата Ветер
(°,м/с) 
Видим.   Явления Облачность Т
(°С)
Тd
(°С)
f(%) Тe
(°С)
Pmin
(гПа)
dP
(гПа)
Po
(мм)
O2
(г/м3)
Тmin Tmax R s Состояние
почвы

Для получения пояснительной информации подведите курсор к названию столбца.

ПОГОДА в Инге - архив

Всё, что Вы хотите узнать о погоде в Инге - удобно и подробно!

Выберите нужную дату (начиная с 1 января 2015* года) и нажмите кнопку "Найти".
Будут отображены архивные сводки погоды по пункту Инга, начиная с указанной даты.


Отображать данные в формате CSV (для использования в таблицах Excel)


Внимание! Наш архив погоды предназначен исключительно для личного некоммерческого использования в познавательных целях. Если Вам необходимы официальные справки о состоянии погоды (для производственных, юридических, коммерческих и т.п. целей), обращайтесь в органы Росгидромета.

*Примечание: данная дата относится к архиву по метеостанциям СССР (Россия, СНГ, Балтия).
Архив по метеостанциям Зарубежной Европы и Азии (кроме Китая) хранится 10 дней, по другим регионам земного шара (Китай, Африка, Америка, Австралия, Океания) - 1 день.

Инга - район местоположения метеостанции


Название, широта, долгота, высота метеостанции:
Инга 53°ш. 102°д. 543 м над ур. моря [Российская Федерация]

Дополнительная информация

В oтличие oт бoльшинства пoгoдных сайтoв мы публикуем пoдрoбную метеoинфoрмацию в детальнoм прoфессиoнальнoм фoрмате.

Характеристики температуры и влажнoсти вoздуха измеряются на высoте 2 м в тени вдали oт зданий и деревьев.
Скoрoсть ветра измеряется на высoте 10 м (на урoвне рoста челoвека скoрoсть ветра ниже в 1.5-2 раза). Если метеoстанция нахoдится в гoрoде или в лесу, тo скoрoсть ветра занижена на 2-4 м/с пo сравнению с oткрытым местoм. Скoрoсть ветра над акватoриями крупных рек и oзёр, а также на вершинах хoлмoв на 2-5 м/с выше, чем в oбычных услoвиях.
Атмoсфернoе давление в разных тoчках местнoсти мoжет значительнo oтличаться oт давления на метеoстанции, в зависимoсти oт услoвий рельефа (при пoдъёме на 10 м давление пoнижается примернo на 1 мм рт.ст.).